^^
Saratoga-Weather Station Historical Data
 
Daily Summary for August 25, 2019 Units:  English    Metric   Both
Daily Weekly Monthly Yearly Custom
  Current: High: Low: Average:
Temperature: 89.2 °F 92.8 °F 79.3 °F 83.6 °F
Dew Point: 77.7 °F 81 °F 76.3 °F 77.9 °F
Humidity: 69% 92% 61% 84%
Wind Speed: 8.9mph 8.9mph 0mph 1.8mph
Wind Gust: 13mph 13mph - -
WindESE - - SSW
Pressure: 29.86 in 29.93 in 29.85 in -
Precipitation: 0 in      
Historical Graphs
 
 
Tabular Data for August 25, 2019
Time Temperature Dew Point Pressure Wind Wind Speed Wind Gust Humidity Rainfall Rate (Hourly) solar
00:00 82.2 °F 76.5 °F 29.93 in SSW 0.9 mph 6 mph 83% 0 in 0.00 W/m2
00:05 82.2 °F 76.5 °F 29.93 in SSE 2.9 mph 4 mph 83% 0 in 0.00 W/m2
00:10 82 °F 76.3 °F 29.93 in South 0.9 mph 2 mph 83% 0 in 0.00 W/m2
00:15 82 °F 76.6 °F 29.93 in South 2.9 mph 4 mph 84% 0 in 0.00 W/m2
00:20 82 °F 76.6 °F 29.92 in SSW 2.9 mph 3 mph 84% 0 in 0.00 W/m2
00:25 82 °F 76.6 °F 29.92 in South 2 mph 2 mph 84% 0 in 0.00 W/m2
00:30 82 °F 76.6 °F 29.92 in SW 4 mph 5 mph 84% 0 in 0.00 W/m2
00:35 82 °F 76.6 °F 29.92 in SW 0.9 mph 7 mph 84% 0 in 0.00 W/m2
00:40 81.9 °F 76.5 °F 29.92 in South 2.9 mph 5 mph 84% 0 in 0.00 W/m2
00:45 81.9 °F 76.5 °F 29.92 in South 0.9 mph 6 mph 84% 0 in 0.00 W/m2
00:50 81.7 °F 76.6 °F 29.92 in SSW 2.9 mph 5 mph 85% 0 in 0.00 W/m2
00:55 81.7 °F 76.6 °F 29.92 in South 2 mph 4 mph 85% 0 in 0.00 W/m2
01:00 81.7 °F 76.6 °F 29.91 in SW 4 mph 4 mph 85% 0 in 0.00 W/m2
01:05 81.7 °F 76.6 °F 29.91 in South 0.9 mph 6 mph 85% 0 in 0.00 W/m2
01:10 81.7 °F 76.6 °F 29.92 in WSW 2.9 mph 4 mph 85% 0 in 0.00 W/m2
01:15 81.7 °F 77 °F 29.91 in South 2 mph 4 mph 86% 0 in 0.00 W/m2
01:20 81.3 °F 76.6 °F 29.91 in SW 6.9 mph 7 mph 86% 0 in 0.00 W/m2
01:25 81.3 °F 76.6 °F 29.91 in SSW 2.9 mph 4 mph 86% 0 in 0.00 W/m2
01:30 81.3 °F 77 °F 29.91 in South 0.9 mph 7 mph 87% 0 in 0.00 W/m2
01:35 81.3 °F 77 °F 29.90 in SSW 0.9 mph 3 mph 87% 0 in 0.00 W/m2
01:40 81.1 °F 76.8 °F 29.90 in South 7 mph 7 mph 87% 0 in 0.00 W/m2
01:45 81.1 °F 76.8 °F 29.89 in SSW 2 mph 5 mph 87% 0 in 0.00 W/m2
01:50 81.1 °F 76.8 °F 29.89 in WSW 2 mph 3 mph 87% 0 in 0.00 W/m2
01:55 81.1 °F 76.8 °F 29.89 in SW 0.9 mph 6 mph 87% 0 in 0.00 W/m2
02:00 81.1 °F 76.8 °F 29.89 in SW 2 mph 3 mph 87% 0 in 0.00 W/m2
02:05 81.3 °F 77 °F 29.89 in WSW 2 mph 4 mph 87% 0 in 0.00 W/m2
02:10 81.3 °F 77 °F 29.90 in South 2 mph 3 mph 87% 0 in 0.00 W/m2
02:15 81.3 °F 77 °F 29.90 in WSW 2 mph 4 mph 87% 0 in 0.00 W/m2
02:20 81.1 °F 76.8 °F 29.89 in SW 5 mph 5 mph 87% 0 in 0.00 W/m2
02:25 81.1 °F 76.8 °F 29.89 in SW 2 mph 2 mph 87% 0 in 0.00 W/m2
02:30 81.1 °F 76.8 °F 29.88 in SSW 2 mph 3 mph 87% 0 in 0.00 W/m2
02:35 81 °F 77 °F 29.88 in SSW 0.9 mph 3 mph 88% 0 in 0.00 W/m2
02:40 80.8 °F 76.8 °F 29.89 in SSW 0.9 mph 2 mph 88% 0 in 0.00 W/m2
02:45 80.8 °F 76.8 °F 29.89 in Calm   2 mph 88% 0 in 0.00 W/m2
02:50 81 °F 77 °F 29.89 in SSW 0.9 mph 2 mph 88% 0 in 0.00 W/m2
02:55 81 °F 77 °F 29.89 in Calm   1 mph 88% 0 in 0.00 W/m2
03:00 80.8 °F 76.8 °F 29.89 in SSW 0.9 mph 2 mph 88% 0 in 0.00 W/m2
03:05 80.6 °F 77 °F 29.89 in SSW 0.9 mph 2 mph 89% 0 in 0.00 W/m2
03:10 80.6 °F 77 °F 29.89 in SSW 3 mph 3 mph 89% 0 in 0.00 W/m2
03:15 80.4 °F 76.8 °F 29.89 in SSW 0.9 mph 2 mph 89% 0 in 0.00 W/m2
03:20 80.8 °F 76.8 °F 29.89 in SSW 0.9 mph 2 mph 88% 0 in 0.00 W/m2
03:25 80.6 °F 77 °F 29.89 in SSW 0.9 mph 3 mph 89% 0 in 0.00 W/m2
03:30 80.6 °F 77 °F 29.89 in SSW 0.9 mph 2 mph 89% 0 in 0.00 W/m2
03:35 80.8 °F 76.8 °F 29.90 in SW 0.9 mph 2 mph 88% 0 in 0.00 W/m2
03:40 80.8 °F 77.2 °F 29.90 in Calm   2 mph 89% 0 in 0.00 W/m2
03:45 80.6 °F 77 °F 29.89 in Calm   1 mph 89% 0 in 0.00 W/m2
03:50 80.6 °F 77 °F 29.89 in South 0.9 mph 2 mph 89% 0 in 0.00 W/m2
03:55 80.8 °F 77.2 °F 29.89 in SSW 2 mph 3 mph 89% 0 in 0.00 W/m2
04:00 80.6 °F 77 °F 29.88 in WSW 4 mph 4 mph 89% 0 in 0.00 W/m2
04:05 80.6 °F 77 °F 29.88 in WSW 0.9 mph 2 mph 89% 0 in 0.00 W/m2
04:10 80.4 °F 76.8 °F 29.88 in SW 0.9 mph 2 mph 89% 0 in 0.00 W/m2
04:15 80.4 °F 76.8 °F 29.89 in Calm   1 mph 89% 0 in 0.00 W/m2
04:20 80.4 °F 76.8 °F 29.89 in Calm   1 mph 89% 0 in 0.00 W/m2
04:25 80.4 °F 76.8 °F 29.89 in Calm   1 mph 89% 0 in 0.00 W/m2
04:30 80.4 °F 77.2 °F 29.89 in Calm   1 mph 90% 0 in 0.00 W/m2
04:35 80.2 °F 77 °F 29.89 in SW 3 mph 3 mph 90% 0 in 0.00 W/m2
04:40 80.4 °F 77.2 °F 29.88 in SW 0.9 mph 2 mph 90% 0 in 0.00 W/m2
04:45 80.4 °F 77.2 °F 29.88 in Calm   2 mph 90% 0 in 0.00 W/m2
04:50 80.2 °F 77 °F 29.88 in SSW 2 mph 2 mph 90% 0 in 0.00 W/m2
04:55 80.2 °F 77 °F 29.88 in SSW 0.9 mph 3 mph 90% 0 in 0.00 W/m2
05:00 80.2 °F 77 °F 29.88 in Calm   2 mph 90% 0 in 0.00 W/m2
05:05 80.1 °F 77.2 °F 29.88 in SSW 0.9 mph 3 mph 91% 0 in 0.00 W/m2
05:10 80.1 °F 77.2 °F 29.88 in SSW 0.9 mph 1 mph 91% 0 in 0.00 W/m2
05:15 79.9 °F 77 °F 29.88 in SSW 2 mph 2 mph 91% 0 in 0.00 W/m2
05:20 80.1 °F 77.2 °F 29.88 in SSW 0.9 mph 2 mph 91% 0 in 0.00 W/m2
05:25 80.1 °F 77.2 °F 29.88 in SSW 0.9 mph 3 mph 91% 0 in 0.00 W/m2
05:30 80.2 °F 77.4 °F 29.88 in SSW 0.9 mph 2 mph 91% 0 in 0.00 W/m2
05:35 80.2 °F 77 °F 29.88 in SSW 0.9 mph 1 mph 90% 0 in 0.00 W/m2
05:40 80.2 °F 77 °F 29.87 in Calm   1 mph 90% 0 in 0.00 W/m2
05:45 80.1 °F 76.8 °F 29.87 in SSW 0.9 mph 2 mph 90% 0 in 0.00 W/m2
05:50 80.1 °F 77.2 °F 29.87 in SSW 2 mph 3 mph 91% 0 in 0.00 W/m2
05:55 80.1 °F 77.2 °F 29.87 in Calm   1 mph 91% 0 in 0.00 W/m2
06:00 79.9 °F 77 °F 29.87 in Calm   1 mph 91% 0 in 0.00 W/m2
06:05 79.7 °F 76.8 °F 29.87 in SSW 0.9 mph 1 mph 91% 0 in 0.00 W/m2
06:10 79.7 °F 76.8 °F 29.87 in SSW 0.9 mph 1 mph 91% 0 in 0.00 W/m2
06:15 79.5 °F 77 °F 29.88 in SSW 2 mph 2 mph 92% 0 in 0.00 W/m2
06:20 79.5 °F 77 °F 29.88 in SSW 2 mph 2 mph 92% 0 in 0.00 W/m2
06:25 79.3 °F 76.8 °F 29.88 in SSW 2 mph 3 mph 92% 0 in 0.00 W/m2
06:30 79.5 °F 77 °F 29.88 in SSW 0.9 mph 2 mph 92% 0 in 0.00 W/m2
06:35 79.5 °F 77 °F 29.88 in Calm   1 mph 92% 0 in 0.00 W/m2
06:40 79.7 °F 77.2 °F 29.88 in South 0.9 mph 5 mph 92% 0 in 0.00 W/m2
06:45 79.9 °F 77.4 °F 29.88 in South 0.9 mph 2 mph 92% 0 in 0.00 W/m2
06:50 79.9 °F 77.4 °F 29.88 in South 2 mph 3 mph 92% 0 in 0.00 W/m2
06:55 80.1 °F 77.5 °F 29.88 in South 0.9 mph 2 mph 92% 0 in 0.00 W/m2
07:00 79.9 °F 77.4 °F 29.88 in Calm   3 mph 92% 0 in 0.00 W/m2
07:05 79.9 °F 77.4 °F 29.88 in South 2 mph 2 mph 92% 0 in 7.00 W/m2
07:10 79.9 °F 77.4 °F 29.88 in South 0.9 mph 1 mph 92% 0 in 11.00 W/m2
07:15 79.9 °F 77.4 °F 29.88 in Calm   2 mph 92% 0 in 19.00 W/m2
07:20 80.1 °F 77.5 °F 29.88 in South 2 mph 3 mph 92% 0 in 28.00 W/m2
07:25 80.2 °F 77.7 °F 29.88 in South 0.9 mph 4 mph 92% 0 in 39.00 W/m2
07:30 80.2 °F 77.4 °F 29.88 in South 2.9 mph 3 mph 91% 0 in 60.00 W/m2
07:35 80.4 °F 77.5 °F 29.88 in South 0.9 mph 2 mph 91% 0 in 54.00 W/m2
07:40 80.8 °F 77.9 °F 29.89 in South 2 mph 2 mph 91% 0 in 47.00 W/m2
07:45 80.8 °F 77.5 °F 29.89 in South 0.9 mph 2 mph 90% 0 in 40.00 W/m2
07:50 80.8 °F 77.9 °F 29.89 in South 0.9 mph 2 mph 91% 0 in 37.00 W/m2
07:55 80.6 °F 77.7 °F 29.90 in Calm   1 mph 91% 0 in 40.00 W/m2
08:00 80.6 °F 77.7 °F 29.90 in Calm   1 mph 91% 0 in 49.00 W/m2
08:05 80.8 °F 77.9 °F 29.90 in South 2 mph 2 mph 91% 0 in 56.00 W/m2
08:10 81 °F 78.1 °F 29.91 in South 0.9 mph 1 mph 91% 0 in 51.00 W/m2
08:15 81 °F 77.7 °F 29.91 in SSW 2 mph 3 mph 90% 0 in 56.00 W/m2
08:20 81 °F 78.1 °F 29.91 in SSW 0.9 mph 2 mph 91% 0 in 81.00 W/m2
08:25 81.1 °F 78.3 °F 29.91 in Calm   3 mph 91% 0 in 109.00 W/m2
08:30 81.7 °F 78.4 °F 29.91 in South 0.9 mph 3 mph 90% 0 in 130.00 W/m2
08:35 81.9 °F 78.3 °F 29.91 in Calm   2 mph 89% 0 in 105.00 W/m2
08:40 81.7 °F 78.1 °F 29.91 in SSW 0.9 mph 2 mph 89% 0 in 120.00 W/m2
08:45 82 °F 78.8 °F 29.91 in Calm   3 mph 90% 0 in 121.00 W/m2
08:50 82.2 °F 78.6 °F 29.91 in South 2 mph 3 mph 89% 0 in 127.00 W/m2
08:55 82.2 °F 78.6 °F 29.91 in South 0.9 mph 2 mph 89% 0 in 135.00 W/m2
09:00 82.6 °F 79 °F 29.91 in SSW 2 mph 3 mph 89% 0 in 153.00 W/m2
09:05 82.6 °F 78.6 °F 29.91 in Calm   2 mph 88% 0 in 162.00 W/m2
09:10 82.6 °F 78.6 °F 29.91 in South 4 mph 4 mph 88% 0 in 181.00 W/m2
09:15 82.9 °F 79 °F 29.91 in Calm   1 mph 88% 0 in 174.00 W/m2
09:20 83.1 °F 79.2 °F 29.91 in South 2 mph 3 mph 88% 0 in 158.00 W/m2
09:25 83.1 °F 78.8 °F 29.91 in Calm   2 mph 87% 0 in 158.00 W/m2
09:30 83.1 °F 78.8 °F 29.91 in SSW 0.9 mph 3 mph 87% 0 in 162.00 W/m2
09:35 83.3 °F 78.6 °F 29.91 in Calm   3 mph 86% 0 in 186.00 W/m2
09:40 83.7 °F 79.3 °F 29.91 in SSW 2 mph 5 mph 87% 0 in 243.00 W/m2
09:45 84 °F 79 °F 29.91 in Calm   1 mph 85% 0 in 264.00 W/m2
09:50 84.6 °F 79.2 °F 29.91 in NW 0.9 mph 2 mph 84% 0 in 271.00 W/m2
09:55 84.7 °F 79 °F 29.92 in WSW 0.9 mph 6 mph 83% 0 in 234.00 W/m2
10:00 84.9 °F 79.2 °F 29.92 in West 0.9 mph 4 mph 83% 0 in 397.00 W/m2
10:05 86 °F 80.6 °F 29.91 in SSW 2.9 mph 5 mph 84% 0 in 571.00 W/m2
10:10 87.4 °F 81 °F 29.91 in West 2 mph 4 mph 81% 0 in 548.00 W/m2
10:15 86.5 °F 79.2 °F 29.92 in WSW 2 mph 7 mph 79% 0 in 308.00 W/m2
10:20 86.4 °F 79 °F 29.92 in WSW 2 mph 6 mph 79% 0 in 410.00 W/m2
10:25 86.4 °F 79.5 °F 29.92 in NW 2.9 mph 7 mph 80% 0 in 529.00 W/m2
10:30 86.7 °F 79 °F 29.92 in WSW 2 mph 6 mph 78% 0 in 376.00 W/m2
10:35 86.5 °F 79.2 °F 29.92 in WSW 2.9 mph 4 mph 79% 0 in 381.00 W/m2
10:40 86.5 °F 79.2 °F 29.91 in WSW 2 mph 4 mph 79% 0 in 374.00 W/m2
10:45 86.7 °F 79.9 °F 29.91 in South 2 mph 5 mph 80% 0 in 334.00 W/m2
10:50 86.5 °F 79.2 °F 29.92 in WSW 4 mph 7 mph 79% 0 in 276.00 W/m2
10:55 86.4 °F 79 °F 29.92 in WSW 0.9 mph 3 mph 79% 0 in 255.00 W/m2
11:00 86.4 °F 79.9 °F 29.92 in SW 0.9 mph 4 mph 81% 0 in 274.00 W/m2
11:05 86.7 °F 79.3 °F 29.92 in SW 2 mph 3 mph 79% 0 in 555.00 W/m2
11:10 88.2 °F 80.1 °F 29.91 in NW 2 mph 3 mph 77% 0 in 912.00 W/m2
11:15 88.9 °F 80.8 °F 29.91 in SSW 0.9 mph 5 mph 77% 0 in 956.00 W/m2
11:20 89.2 °F 80.2 °F 29.91 in NNW 2.9 mph 9 mph 75% 0 in 893.00 W/m2
11:25 88.9 °F 79.9 °F 29.91 in SSW 4 mph 4 mph 75% 0 in 884.00 W/m2
11:30 89.2 °F 79.5 °F 29.91 in West 2 mph 5 mph 73% 0 in 911.00 W/m2
11:35 90.1 °F 80.8 °F 29.91 in SW 2 mph 7 mph 74% 0 in 882.00 W/m2
11:40 90.7 °F 80.4 °F 29.91 in WSW 4 mph 6 mph 72% 0 in 923.00 W/m2
11:45 90.1 °F 79.5 °F 29.90 in WNW 2.9 mph 3 mph 71% 0 in 900.00 W/m2
11:50 90.3 °F 79.2 °F 29.90 in WNW 2 mph 4 mph 70% 0 in 967.00 W/m2
11:55 91 °F 79.5 °F 29.89 in WNW 2 mph 5 mph 69% 0 in 984.00 W/m2
12:00 91.2 °F 80.1 °F 29.89 in NW 0.9 mph 6 mph 70% 0 in 803.00 W/m2
12:05 90.1 °F 79.5 °F 29.88 in SSW 2.9 mph 7 mph 71% 0 in 302.00 W/m2
12:10 90.3 °F 78.8 °F 29.88 in WNW 2.9 mph 9 mph 69% 0 in 329.00 W/m2
12:15 90.1 °F 79 °F 29.88 in North 4 mph 10 mph 70% 0 in 265.00 W/m2
12:20 89.8 °F 79.2 °F 29.88 in Calm   1 mph 71% 0 in 1049.00 W/m2
12:25 90.9 °F 78.8 °F 29.88 in West 4 mph 4 mph 68% 0 in 429.00 W/m2
12:30 91.2 °F 78.8 °F 29.88 in East 2 mph 6 mph 67% 0 in 1153.00 W/m2
12:35 92.8 °F 77.4 °F 29.87 in WSW 0.9 mph 3 mph 61% 0 in 1148.00 W/m2
12:40 92.7 °F 79.7 °F 29.87 in North 8.1 mph 9 mph 66% 0 in 432.00 W/m2
12:45 91 °F 78.1 °F 29.87 in NW 4.9 mph 5 mph 66% 0 in 424.00 W/m2
12:50 91 °F 79 °F 29.87 in NNE 2 mph 8 mph 68% 0 in 243.00 W/m2
12:55 90.7 °F 78.6 °F 29.86 in WNW 2 mph 3 mph 68% 0 in 239.00 W/m2
13:00 91.9 °F 79.3 °F 29.86 in NNE 2 mph 5 mph 67% 0 in 367.00 W/m2
13:05 91.4 °F 77.9 °F 29.86 in NNW 2.9 mph 3 mph 65% 0 in 350.00 W/m2
13:10 91.2 °F 78.3 °F 29.86 in North 0.9 mph 3 mph 66% 0 in 322.00 W/m2
13:15 91.8 °F 79.2 °F 29.86 in North 4.9 mph 5 mph 67% 0 in 656.00 W/m2
13:20 92.7 °F 79.2 °F 29.85 in North 4 mph 9 mph 65% 0 in 392.00 W/m2
13:25 92.1 °F 78.6 °F 29.86 in NW 2.9 mph 6 mph 65% 0 in 287.00 W/m2
13:30 92.5 °F 79.5 °F 29.86 in North 2.9 mph 4 mph 66% 0 in 1081.00 W/m2
13:35 92.7 °F 79.2 °F 29.85 in SW 0.9 mph 4 mph 65% 0 in 281.00 W/m2
13:40 92.1 °F 78.3 °F 29.85 in West 4 mph 7 mph 64% 0 in 290.00 W/m2
13:45 91.2 °F 77.4 °F 29.85 in South 2 mph 3 mph 64% 0 in 446.00 W/m2
13:50 92.1 °F 78.3 °F 29.85 in South 0.9 mph 4 mph 64% 0 in 471.00 W/m2
13:55 91.9 °F 78.1 °F 29.86 in SSW 6 mph 8 mph 64% 0 in 315.00 W/m2
14:00 90.9 °F 78.4 °F 29.86 in SE 2.9 mph 9 mph 67% 0 in 325.00 W/m2
14:05 89.2 °F 77.7 °F 29.86 in ESE 8.9 mph 13 mph 69% 0 in 134.00 W/m2
Villages of Bridgestone, Spring, TX USA
Compliments of Weather Underground - 2.25 mb